CZ-6A DEB

Satellite information

Favourite Embed

Satellite Type and Status

DEBRISIN ORBIT

Key statistics

Satellite CZ-6A DEB at a glance.

Uptime

969

Days in orbit

Revolutions

≈ 14.1

Per day

Orbit

SSO

Sun Synchronous Orbit

Inclination

98.8

Latest

Satellite identification and parameters

Extended collection of information and parameters for CZ-6A DEB.

Object identification

Identified? True

Debris? True

Object name: CZ-6A DEB

International designator: 2022-151QH

Object number (NORAD): 54896

Object ID (CCSDS): 54896

Country: PEOPLES REPUBLIC OF CHINA (PRC)

Current information (Y/N): Y

RCS size: SMALL

Orbital parameters

Period: 102.455 minutes

Inclination: 98.8285 deg

SMA: 7252.948 km

Apoapsis: 920.541 km

Periapsis: 829.084 km

RAAN: 180.6416 deg

Eccentricy: 0.0063048

Argument of periapsis: 253.0654 deg

Mean anomaly: 106.3597 deg

Mean motion: 14.05500298 rev/day

Mean motion (dot): 0.00000179 rev/day2

B* drag term: 0.00013452 1/REarth

Two-line elements (TLE)

Creation date: July 6, 2025, 6:05 p.m.

Reference frame: TEME

Reference center: EARTH

Epoch: July 6, 2025, 11:13 a.m. UTC

TLE line 0: 0 CZ-6A DEB

TLE line 1: 1 54896U 22151QH 25187.46781681 .00000179 00000-0 13452-3 0 9992

TLE line 2: 2 54896 98.8285 180.6416 0063048 253.0654 106.3597 14.05500298133075

Live tracking on map

Real-time ground track for satellite CZ-6A DEB.

In-orbit conjunctions

A list of the most updated potential collisions computed for object CZ-6A DEB.

Target Orbit TCA Probability of collision Miss distance Type
THORAD AGENA D DEB SSO 2024-09-26 21:35:27 0.0007587994 750.0 (m) DEBRIS
CZ-4 R/B SSO 2024-07-28 01:03:02 0.001839753 102.0 (m) ROCKET BODY
DELTA 4 R/B MEO 2024-06-04 15:45:21 0.0002238278 96.0 (m) ROCKET BODY
CZ-6A DEB SSO 2024-05-28 04:49:19 0.0001483851 320.0 (m) DEBRIS

Associated space launch

Chinese satellite reported for atmospheric/ocean/environmental/spatial parameter research purposes, details TBD.

CZ-6A DEB was lifted into orbit during the mission ‘Long March 6A | Yunhai 3’, on board a Long March 6A space rocket.

The launch took place on Nov. 11, 2022, 10:52 p.m. from Launch Complex 9A.

For more information about the launch, click the button.

Launch to space Long March 6A | Yunhai 3
Long March 6A | Yunhai 3

Agency: N/A

Status: Launch Successful

Launch date: Nov. 11, 2022, 10:52 p.m. UTC

Rocket: Long March 6A

Launch pad: Launch Complex 9A

Location: Taiyuan Satellite Launch Center, People's Republic of China

...

Latest news about this satellite

There are no fresh news available about this satellite. Check back as we update our databases every day.


Newsletter sign-up

Weekly statistics, charts and insights to help you stay on top of the space industry.